Omak, WA

2:21 PM PST on January 17, 2018 (GMT -0800)
Omak

Weather History for KOMK - May, 2012

Change the Weather History Date:

Thursday, May 31, 2012

  Actual Average Record
Temperature  
Mean Temperature 64 °F 62 °F  
Max Temperature 74 °F 76 °F 92 °F (1931)
Min Temperature 54 °F 49 °F 35 °F (1976)
Degree Days  
Heating Degree Days 1 4  
Month to date heating degree days 281 233  
Since 1 July heating degree days 6565 6273  
Cooling Degree Days 0 1  
Month to date cooling degree days 2 22  
Year to date cooling degree days 4 23  
Growing Degree Days 15 (Base 50)    
Moisture  
Dew Point 48 °F    
Average Humidity 57    
Maximum Humidity 72    
Minimum Humidity 41    
Precipitation  
Precipitation T in 0.04 in 0.68 in (1941)
Month to date precipitation 0.53 1.22  
Year to date precipitation 5.79 6.75  
Sea Level Pressure  
Sea Level Pressure 30.00 in    
Wind  
Wind Speed 6 mph (South)    
Max Wind Speed 17 mph    
Max Gust Speed 22 mph    
Visibility 10 miles    
Events      
T = Trace of Precipitation, MM = Missing Value Source: NWS Daily Summary

Daily Weather History Graph

Daily Weather History Graph

Search for Another Location

Airport or City:

Trip Planner

Search our weather history database for the weather conditions in past years. The results will help you decide how hot, cold, wet, or windy it might be!

Date:

Astronomy

May. 31, 2012 Rise Set
Actual Time 5:01 AM PDT 8:51 PM PDT
Civil Twilight 4:20 AM PDT 9:31 PM PDT
Nautical Twilight 3:25 AM PDT 10:27 PM PDT
Astronomical Twilight 2:02 AM PDT 11:52 PM PDT
Moon 4:31 PM PDT (5/31) 2:21 AM PDT (5/31)
Length of Visible Light 17h 10m
Length of Day
15h 50m
Waxing Gibbous, 81% of the Moon is Illuminated
May 31
Waxing Gibbous
Jun 4
Full
Jun 11
Last Quarter
Jun 19
New
Jun 26
First Quarter

Hourly Weather History & Observations

Time (PDT) Temp. Dew Point Humidity Pressure Visibility Wind Dir Wind Speed Gust Speed Precip Events Conditions
12:53 AM 61.0 °F 46.0 °F 58% 30.05 in 10.0 mi Calm Calm - N/A   Overcast
1:53 AM 60.1 °F 48.0 °F 64% 30.04 in 10.0 mi West 3.5 mph - 0.00 in   Overcast
2:53 AM 60.1 °F 48.0 °F 64% 30.01 in 10.0 mi West 4.6 mph - N/A   Overcast
3:53 AM 60.1 °F 48.0 °F 64% 30.01 in 10.0 mi Calm Calm - N/A   Overcast
4:53 AM 57.9 °F 48.9 °F 72% 30.01 in 10.0 mi Calm Calm - N/A   Overcast
5:53 AM 59.0 °F 48.0 °F 67% 30.01 in 10.0 mi North 9.2 mph - N/A   Overcast
7:53 AM 62.1 °F 48.9 °F 62% 30.03 in 10.0 mi NNW 6.9 mph - N/A   Mostly Cloudy
8:53 AM 63.0 °F 48.0 °F 58% 30.04 in 10.0 mi North 4.6 mph - N/A   Mostly Cloudy
9:53 AM 66.0 °F 48.9 °F 54% 30.04 in 10.0 mi NE 3.5 mph - N/A   Partly Cloudy
10:53 AM 66.0 °F 46.9 °F 50% 30.03 in 10.0 mi Calm Calm - N/A   Mostly Cloudy
11:53 AM 66.0 °F 46.9 °F 50% 30.04 in 10.0 mi South 4.6 mph - N/A   Partly Cloudy
12:53 PM 66.9 °F 46.9 °F 49% 30.03 in 10.0 mi SSE 12.7 mph - N/A   Clear
1:53 PM 69.1 °F 48.0 °F 47% 30.02 in 10.0 mi SSE 13.8 mph - N/A   Clear
2:53 PM 72.0 °F 48.9 °F 44% 30.01 in 10.0 mi SSE 12.7 mph - N/A   Clear
3:53 PM 73.0 °F 48.9 °F 42% 29.99 in 10.0 mi SE 15.0 mph - N/A   Partly Cloudy
4:53 PM 72.0 °F 50.0 °F 46% 29.96 in 10.0 mi SE 9.2 mph - N/A   Clear
5:53 PM 73.0 °F 48.9 °F 42% 29.94 in 10.0 mi South 3.5 mph - N/A   Clear
6:53 PM 73.0 °F 50.0 °F 44% 29.93 in 10.0 mi South 6.9 mph - N/A   Clear
8:53 PM 64.9 °F 48.9 °F 56% 29.92 in 10.0 mi Calm Calm - N/A   Clear
9:53 PM 59.0 °F 46.9 °F 64% 29.93 in 10.0 mi Calm Calm - N/A   Partly Cloudy
11:53 PM 60.1 °F 39.9 °F 47% 29.92 in 10.0 mi West 5.8 mph - N/A   Clear